DateTimeUTC,F1_A11,F1_S11,BsB_S11,BsG_S11,BsR_S11,BbsB_S11,BbsG_S11,BbsR_S11,BaB_A11,BaG_A11,BaR_A11,Tu_S11,T_S11,Uu_S11,U_S11,P_S11,T1_A11
2021-06-04T06:00:00Z,00000200,21000000,,,,,,,-000.17,0000.21,-000.19,16.6,23.7,01.2,00.8,0673.6,30.9
2021-06-04T06:01:00Z,00000200,21000000,,,,,,,0000.15,0000.14,0000.37,16.6,23.7,01.2,00.8,0673.6,30.9
2021-06-04T06:02:00Z,00000200,21000000,,,,,,,0000.12,-000.34,-000.29,16.6,23.7,01.2,00.8,0673.6,30.9
2021-06-04T06:03:00Z,00000200,61000000,,,,,,,0000.33,0000.55,0000.27,16.6,23.7,00.9,00.6,0673.6,30.9
2021-06-04T06:04:00Z,00000200,41000000,0003.71,0002.13,0001.40,-000.13,0000.30,0000.28,0000.18,0000.10,0000.49,16.7,23.5,01.1,00.7,0674.6,30.9
2021-06-04T06:05:00Z,00000200,01000000,0003.47,0002.56,0001.24,0000.34,0000.39,0000.48,0000.37,0000.43,0000.54,16.7,23.4,01.2,00.8,0674.7,30.9
2021-06-04T06:06:00Z,00000200,01000000,0003.91,0002.46,0001.30,0000.50,0000.32,0000.23,0000.04,0000.12,-000.51,16.7,23.4,01.2,00.8,0674.7,30.9
2021-06-04T06:07:00Z,00000200,01000000,0003.52,0002.35,0001.63,0000.70,0000.24,0000.26,0000.60,0000.52,0000.64,16.7,23.4,01.3,00.9,0674.7,30.9
2021-06-04T06:08:00Z,00000200,01000000,0004.04,0002.85,0001.23,0000.70,0000.33,0000.35,0000.40,0000.08,0000.17,16.7,23.4,01.3,00.9,0674.6,30.9
2021-06-04T06:09:00Z,00000200,01000000,0004.60,0002.17,0001.19,0000.42,0000.59,0000.51,0000.22,0000.61,0000.28,16.7,23.4,01.4,00.9,0674.6,30.9
2021-06-04T06:10:00Z,00000200,01000000,0003.95,0002.51,0001.26,0000.83,0000.36,0000.21,0000.36,0000.36,0000.37,16.6,23.4,01.5,01.0,0674.7,30.9
2021-06-04T06:11:00Z,00000200,01000000,0004.15,0002.99,0001.61,0000.28,0000.46,0000.32,0000.44,0000.43,0000.49,16.6,23.4,01.5,01.0,0674.6,30.9
2021-06-04T06:12:00Z,00000200,01000000,0003.72,0002.49,0001.46,0000.43,0000.23,0000.22,0000.37,-000.32,-000.22,16.6,23.3,01.3,00.9,0674.7,30.9
2021-06-04T06:13:00Z,00000200,01000000,0003.92,0002.56,0001.25,-000.24,0000.39,0000.24,0000.20,0001.05,0000.87,16.6,23.3,01.4,00.9,0674.7,30.9
2021-06-04T06:14:00Z,00000200,01000000,0004.23,0002.07,0001.42,0000.36,0000.37,-000.00,0000.33,0000.20,0000.17,16.6,23.3,01.5,01.0,0674.7,30.9
2021-06-04T06:15:00Z,00000200,01000000,0003.79,0002.28,0001.32,0000.54,0000.40,0000.32,0000.27,0000.05,0000.00,16.7,23.3,01.3,00.9,0674.7,30.9
2021-06-04T06:16:00Z,00000200,01000000,0004.57,0002.61,0001.46,0000.26,0000.57,0000.28,0000.16,0000.24,0000.62,16.7,23.4,01.5,01.0,0674.7,30.9
2021-06-04T06:17:00Z,00000200,01000000,0003.95,0002.39,0001.48,0000.55,0000.51,0000.15,0000.59,0000.53,0000.15,16.7,23.4,01.4,00.9,0674.7,30.9
2021-06-04T06:18:00Z,00000200,01000000,0003.94,0002.49,0001.55,0000.34,0000.33,0000.36,0000.41,0000.45,0000.45,16.7,23.4,01.4,00.9,0674.7,30.9
2021-06-04T06:19:00Z,00000200,01000000,0003.94,0002.68,0001.32,0000.25,0000.32,0000.08,0000.16,-000.02,0000.00,16.8,23.4,01.4,00.9,0674.7,30.9
2021-06-04T06:20:00Z,00000200,01000000,0003.66,0002.58,0001.68,0000.57,0000.49,0000.19,0000.42,0000.49,0000.63,16.8,23.4,01.5,01.0,0674.7,30.9
2021-06-04T06:21:00Z,00000200,01000000,0004.09,0002.71,0001.43,0000.34,0000.22,0000.32,0000.26,0000.12,0000.18,16.8,23.4,01.5,01.0,0674.7,30.9
2021-06-04T06:22:00Z,00000200,01000000,0004.01,0002.86,0001.51,0000.46,0000.23,0000.17,0000.23,0000.37,0000.13,16.7,23.4,01.5,01.0,0674.7,30.9
2021-06-04T06:23:00Z,00000200,01000000,0004.14,0002.91,0001.48,0000.65,0000.44,-000.01,0000.39,0000.27,0000.07,16.7,23.4,01.5,01.0,0674.7,30.9
2021-06-04T06:24:00Z,00000200,01000000,0004.12,0002.57,0001.42,0000.25,0000.30,0000.00,0000.25,0000.47,0000.70,16.7,23.3,01.6,01.1,0674.7,30.9
2021-06-04T06:25:00Z,00000200,01000000,0004.28,0002.82,0001.45,0000.44,0000.48,0000.50,0000.66,0000.49,-000.06,16.7,23.4,01.6,01.0,0674.7,30.9
2021-06-04T06:26:00Z,00000200,01000000,0003.92,0002.76,0001.58,0000.74,0000.20,0000.37,0000.10,0000.30,0000.26,16.7,23.3,01.6,01.1,0674.7,30.9
2021-06-04T06:27:00Z,00000200,01000000,0003.92,0002.74,0001.47,0000.79,0000.56,0000.28,0000.17,0000.06,0000.27,16.7,23.3,01.6,01.0,0674.7,30.9
2021-06-04T06:28:00Z,00000200,01000000,0003.67,0002.60,0001.13,0000.23,0000.21,0000.08,0000.45,0000.36,0000.23,16.7,23.3,01.6,01.1,0674.7,30.9
2021-06-04T06:29:00Z,00000200,01000000,0004.05,0002.66,0001.73,0000.63,0000.28,0000.53,0000.45,0000.33,0000.18,16.7,23.3,01.7,01.1,0674.7,30.9
2021-06-04T06:30:00Z,00000200,01000000,0004.48,0002.80,0001.47,0000.90,0000.34,0000.41,0000.31,-000.01,0000.45,16.7,23.3,01.6,01.1,0674.7,30.9
2021-06-04T06:31:00Z,00000200,01000000,0003.35,0002.53,0001.28,0000.36,0000.22,0000.16,0000.24,0000.65,0000.25,16.7,23.3,01.6,01.1,0674.7,30.9
2021-06-04T06:32:00Z,00000200,01000000,0004.27,0002.58,0001.45,0000.54,-000.03,0000.24,0000.25,0000.15,0000.49,16.7,23.3,01.6,01.0,0674.7,30.9
2021-06-04T06:33:00Z,00000200,01000000,0003.14,0002.63,0001.40,0000.20,0000.44,0000.39,0000.58,0000.28,0000.12,16.7,23.3,01.6,01.1,0674.6,30.9
2021-06-04T06:34:00Z,00000200,01000000,0004.69,0002.50,0001.32,0000.69,0000.22,0000.13,-000.17,0000.26,0000.18,16.7,23.3,01.6,01.1,0674.7,30.9
2021-06-04T06:35:00Z,00000200,01000000,0003.90,0002.56,0001.37,0000.74,0000.42,0000.14,0000.14,-000.11,-000.04,16.7,23.3,01.7,01.1,0674.6,30.9
2021-06-04T06:36:00Z,00000200,01000000,0003.80,0002.52,0001.50,0000.62,0000.43,0000.29,0000.43,0000.40,0000.21,16.6,23.3,01.6,01.0,0674.6,30.9
2021-06-04T06:37:00Z,00000200,01000000,0003.79,0002.48,0001.55,0000.54,0000.35,0000.01,0000.04,0000.10,0000.46,16.6,23.2,01.5,01.0,0674.6,30.9
2021-06-04T06:38:00Z,00000200,01000000,0004.12,0002.63,0001.44,0000.33,0000.35,0000.43,0000.48,0000.40,-000.02,16.6,23.3,01.5,01.0,0674.6,30.9
2021-06-04T06:39:00Z,00000200,01000000,0004.81,0002.36,0001.45,0000.23,0000.53,0000.30,0000.25,0000.19,0000.11,16.6,23.2,01.5,01.0,0674.6,30.9
2021-06-04T06:40:00Z,00000200,01000000,0004.06,0002.87,0001.22,0000.35,0000.42,0000.33,0000.36,0000.33,0000.71,16.6,23.2,01.4,01.0,0674.6,30.9
2021-06-04T06:41:00Z,00000200,01000000,0003.88,0002.55,0001.45,0000.99,0000.29,0000.56,-000.29,-000.41,-000.54,16.6,23.2,01.4,01.0,0674.6,30.9
2021-06-04T06:42:00Z,00000200,01000000,0004.19,0002.42,0001.13,0000.33,0000.18,0000.40,0000.32,0000.61,0000.36,16.6,23.2,01.3,00.9,0674.6,30.9
2021-06-04T06:43:00Z,00000200,01000000,0003.41,0002.13,0001.17,0000.33,0000.44,0000.08,0000.14,0000.17,0000.19,16.6,23.2,01.1,00.8,0674.6,30.9
2021-06-04T06:44:00Z,00000200,01000000,0003.48,0002.63,0001.10,0000.31,0000.31,0000.26,0000.23,-000.22,0000.10,16.6,23.2,01.1,00.7,0674.6,30.9
2021-06-04T06:45:00Z,00000200,01000000,0003.74,0002.35,0000.98,0000.12,0000.32,0000.03,0000.03,0000.48,0000.42,16.7,23.2,01.0,00.6,0674.7,30.9
2021-06-04T06:46:00Z,00000200,01000000,0003.77,0002.33,0001.56,0000.09,0000.35,0000.20,0000.41,0000.31,0000.44,16.7,23.3,00.9,00.6,0674.7,30.9
2021-06-04T06:47:00Z,00000200,01000000,0003.99,0002.36,0001.25,0000.61,0000.24,0000.31,0000.60,0000.73,0000.45,16.8,23.3,01.0,00.7,0674.7,30.9
2021-06-04T06:48:00Z,00000200,01000000,0003.67,0002.66,0001.58,0000.33,0000.35,0000.47,0000.27,0000.50,-000.02,16.8,23.3,01.1,00.7,0674.7,30.9
2021-06-04T06:49:00Z,00000200,01000000,0004.38,0002.57,0001.35,0000.57,0000.34,0000.28,0000.39,-000.03,0000.38,16.9,23.3,01.2,00.8,0674.7,30.9
2021-06-04T06:50:00Z,00000200,01000000,0004.35,0002.38,0001.35,0000.27,0000.44,0000.30,-000.02,-000.24,0000.17,16.8,23.3,01.1,00.7,0674.7,30.9
2021-06-04T06:51:00Z,00000200,01000000,0004.27,0002.32,0001.69,0000.44,0000.38,0000.52,0000.32,0000.72,-000.06,16.8,23.3,00.9,00.6,0674.7,30.9
2021-06-04T06:52:00Z,00000200,01000000,0004.77,0002.49,0001.19,0000.10,0000.33,0000.11,0000.35,0000.37,0000.26,16.8,23.3,01.1,00.7,0674.7,30.9
2021-06-04T06:53:00Z,00000200,01000000,0004.05,0002.43,0001.19,0000.49,0000.21,0000.07,0000.29,0000.06,0000.61,16.8,23.3,01.2,00.8,0674.7,30.9
2021-06-04T06:54:00Z,00000200,01000000,0003.92,0002.72,0000.94,0000.81,0000.38,0000.22,0000.75,0000.61,0000.46,16.8,23.3,01.2,00.8,0674.7,30.9
2021-06-04T06:55:00Z,00000200,01000000,0003.73,0002.27,0001.36,0000.27,0000.32,0000.49,0000.57,0000.45,0000.25,16.8,23.3,01.2,00.8,0674.7,30.9
2021-06-04T06:56:00Z,00000200,01000000,0003.65,0002.16,0001.10,-000.12,0000.50,0000.17,-000.11,0000.32,0000.11,16.7,23.3,01.3,00.8,0674.7,30.9
2021-06-04T06:57:00Z,00000200,41000000,,,,,,,0000.32,0000.13,0000.46,16.8,23.4,00.9,00.6,0674.7,30.9
2021-06-04T06:58:00Z,00000200,61000000,,,,,,,-000.46,-000.32,-000.53,16.5,23.5,01.2,00.8,0673.7,30.9
2021-06-04T06:59:00Z,00000200,21000000,,,,,,,-000.27,-000.54,-000.49,16.5,23.5,01.0,00.6,0673.7,30.9
